Starlink 5369

operational
NORAD ID: 54837 Int'l Des: 2022-177 Owner: SPXS Country: US Constellation: starlink
LEOCIRCULAR

关于 Starlink 5369

正在加载描述...

实时位置

正在加载3D地球...

即将过境

高度历史

Altitude vs Time

uPlot chart will show altitude changes over time

两行轨道根数

1 54837U 22177T 25350.36735705 .00000752 00000-0 70702-4 0 9991
2 54837 43.0029 225.8972 0001013 272.2145 87.8581 15.02537150164423
Epoch: Dec 16, 2025 • Age: 27 hours

当前状态

高度 568.5 km
速度 7.58 km/s
星下点 -34.89°S, 169.31°W
发射日期 Dec 28, 2022
运行时间 2.9 years
类型 internet

技术详情

分类 Payload
质量 305.00 kg
干质量 290.00 kg
总质量 305.00 kg
长度 0.20 m
直径 2.80 m
跨度 9.00 m
形状 Box + pan
制造商 SPXS
平台类型 Starlink
阶段状态 In Orbit
所有者/国家 SPXS/US

大型星座

Loading constellations...